Flag for Mexico Weather past 2 weeks in Matamoros, Tamaulipas, Mexico

Now
89 °F

Broken clouds.


Feels Like: 99 °F
Forecast: 78 / 95 °F
Wind: 8 mph from North

Location: Brownsville / South Padre Island International Airport

Current Time: Aug 27, 2014 at 12:05:53 PM

Latest Report: Aug 27, 2014 at 10:53 AM


Visibility: 10 mi

Pressure: 29.94 "Hg

Humidity: 63%

Dew point: 75 °F

Location of MatamorosLocation

Historic Weather in Matamoros — Graph

°F

Matamoros temperature yesterday

Maximum temperature yesterday: 98 °F (at 1:53 PM)
Minimum temperature yesterday: 75 °F (at 6:53 AM)
Average temperature yesterday: 85 °F

Past Weeks' High & Low Weather Summary

 TemperatureHumidityPressure
High99 °F (Aug 15, 2:53 PM)100% (Aug 26, 4:53 AM)30.06 "Hg (Aug 26, 4:53 AM)
Low75 °F (Aug 19, 2:53 AM)36% (Aug 26, 1:53 PM)29.81 "Hg (Aug 19, 6:53 PM)
Average86 °F73%29.94 "Hg
* Reported Aug 12 9:53 AM — Aug 27 9:53 AM, Matamoros, Weather by CustomWeather, © 2014

Note: Actual official high and low records may vary slightly from our data, if they occured in-between our weather recording intervals... More about our weather records

Advertising

Matamoros weather history for previous 24 hours

 ConditionsComfort  
Time TempWeatherWind HumidityBarometerVisibility
9:53 AM
Aug 27
87 °FScattered clouds.7 mph69%29.94 "Hg10 mi
8:53 AM84 °FScattered clouds.6 mph80%29.93 "Hg10 mi
7:53 AM79 °FClear.6 mph90%29.93 "Hg10 mi
6:53 AM78 °FClear.6 mph93%29.91 "Hg10 mi
5:53 AM78 °FClear.5 mph93%29.89 "Hg10 mi
4:53 AM78 °FClear.5 mph90%29.90 "Hg10 mi
3:53 AM78 °FClear.3 mph93%29.90 "Hg10 mi
2:53 AM80 °FClear.3 mph87%29.92 "Hg10 mi
1:53 AM80 °FClear.No wind87%29.93 "Hg10 mi
12:53 AM80 °FClear.No wind87%29.93 "Hg10 mi
11:53 PM
Aug 26
81 °FClear.No wind85%29.93 "Hg10 mi
10:53 PM81 °FClear.5 mph85%29.93 "Hg10 mi
9:53 PM82 °FClear.6 mph82%29.92 "Hg10 mi
8:53 PM83 °FSunny.6 mph79%29.90 "Hg10 mi
7:53 PM85 °FSunny.13 mph75%29.90 "Hg10 mi
6:53 PM87 °FSunny.16 mph72%29.89 "Hg10 mi
5:53 PM92 °FSunny.13 mph54%29.88 "Hg10 mi
4:53 PM94 °FScattered clouds.17 mph49%29.88 "Hg10 mi
3:53 PM95 °FPartly sunny.17 mph43%29.90 "Hg10 mi
2:53 PM97 °FSunny.16 mph42%29.91 "Hg10 mi
1:53 PM98 °FPassing clouds.7 mph36%29.91 "Hg10 mi
12:53 PM96 °FSunny.5 mph41%29.93 "Hg10 mi
Weather by CustomWeather, © 2014

See weather overviewHow to use our weather pages